Location: �bnet
(46.9957°N, 8.4908°E)
Time: 01:02:33
(UTC+00:00)

Okean 3 - Pass Details

Date: 11 May 2021
Orbit: 575 x 601 km, 82.5° (Epoch: 18 June)

Event Time Altitude Azimuth Distance (km) Brightness Sun altitude
Exits shadow 23:50:45 62° 300° (WNW) 672 3.7 -24.6°
Drops below altitude 10° 23:54:45 10° 3° (N) 1,927 7.2 -24.5°
Sets 23:56:59 0° 7° (N) 2,828 8.4 -24.4°
